TimeCDT,TemperatureF,Dew PointF,Humidity,Sea Level PressureIn,VisibilityMPH,Wind Direction,Wind SpeedMPH,Gust SpeedMPH,PrecipitationIn,Events,Conditions,WindDirDegrees,DateUTC
12:13 AM,44.6,39.2,81,30.00,10.0,Calm,Calm,-,N/A,,Clear,0,2013-09-21 05:13:00
12:33 AM,44.6,39.2,81,30.00,10.0,Calm,Calm,-,N/A,,Clear,0,2013-09-21 05:33:00
12:53 AM,44.6,39.2,81,30.00,10.0,Calm,Calm,-,N/A,,Clear,0,2013-09-21 05:53:00
1:13 AM,42.8,39.2,87,30.00,10.0,Calm,Calm,-,N/A,,Clear,0,2013-09-21 06:13:00
1:33 AM,42.8,39.2,87,30.00,10.0,Calm,Calm,-,N/A,,Clear,0,2013-09-21 06:33:00
1:53 AM,44.6,39.2,81,30.00,10.0,Calm,Calm,-,N/A,,Clear,0,2013-09-21 06:53:00
2:13 AM,42.8,37.4,81,30.00,10.0,Calm,Calm,-,N/A,,Clear,0,2013-09-21 07:13:00
2:33 AM,39.2,37.4,93,30.00,10.0,Calm,Calm,-,N/A,,Clear,0,2013-09-21 07:33:00
2:53 AM,39.2,37.4,93,30.00,10.0,Calm,Calm,-,N/A,,Clear,0,2013-09-21 07:53:00
3:13 AM,41.0,39.2,93,29.99,10.0,Calm,Calm,-,N/A,,Clear,0,2013-09-21 08:13:00
3:33 AM,39.2,37.4,93,29.99,10.0,Calm,Calm,-,N/A,,Clear,0,2013-09-21 08:33:00
3:53 AM,41.0,37.4,87,29.99,10.0,Calm,Calm,-,N/A,,Clear,0,2013-09-21 08:53:00
4:13 AM,37.4,35.6,93,29.99,10.0,Calm,Calm,-,N/A,,Clear,0,2013-09-21 09:13:00
4:33 AM,37.4,37.4,100,29.98,10.0,Calm,Calm,-,N/A,,Clear,0,2013-09-21 09:33:00
4:53 AM,41.0,37.4,87,29.99,10.0,Calm,Calm,-,N/A,,Clear,0,2013-09-21 09:53:00
5:13 AM,39.2,37.4,93,29.98,10.0,Calm,Calm,-,N/A,,Clear,0,2013-09-21 10:13:00
5:33 AM,39.2,37.4,93,29.98,10.0,Calm,Calm,-,N/A,,Clear,0,2013-09-21 10:33:00
5:53 AM,39.2,35.6,87,29.99,10.0,Calm,Calm,-,N/A,,Clear,0,2013-09-21 10:53:00
6:13 AM,37.4,35.6,93,29.99,10.0,Calm,Calm,-,N/A,,Clear,0,2013-09-21 11:13:00
6:33 AM,37.4,35.6,93,30.00,10.0,Calm,Calm,-,N/A,,Clear,0,2013-09-21 11:33:00
6:53 AM,37.4,35.6,93,30.00,10.0,Calm,Calm,-,N/A,,Clear,0,2013-09-21 11:53:00
7:14 AM,37.4,35.6,93,30.00,10.0,Calm,Calm,-,N/A,,Clear,0,2013-09-21 12:14:00
7:33 AM,37.4,35.6,93,30.00,10.0,Calm,Calm,-,N/A,,Clear,0,2013-09-21 12:33:00
7:53 AM,37.4,35.6,93,30.00,10.0,Calm,Calm,-,N/A,,Clear,0,2013-09-21 12:53:00
8:14 AM,41.0,37.4,87,30.01,10.0,Calm,Calm,-,N/A,,Clear,0,2013-09-21 13:14:00
8:33 AM,44.6,39.2,81,30.01,10.0,Calm,Calm,-,N/A,,Clear,0,2013-09-21 13:33:00
8:53 AM,48.2,42.8,82,30.01,10.0,Calm,Calm,-,N/A,,Clear,0,2013-09-21 13:53:00
9:14 AM,51.8,44.6,76,30.01,10.0,Calm,Calm,-,N/A,,Clear,0,2013-09-21 14:14:00
9:33 AM,53.6,44.6,72,30.01,10.0,SE,3.5,-,N/A,,Clear,130,2013-09-21 14:33:00
9:53 AM,55.4,44.6,67,30.01,10.0,Calm,Calm,-,N/A,,Clear,0,2013-09-21 14:53:00
10:13 AM,55.4,42.8,63,30.01,10.0,SE,3.5,-,N/A,,Clear,130,2013-09-21 15:13:00
10:33 AM,57.2,42.8,59,30.01,10.0,Calm,Calm,-,N/A,,Clear,0,2013-09-21 15:33:00
10:53 AM,57.2,42.8,59,30.01,10.0,Calm,Calm,-,N/A,,Clear,0,2013-09-21 15:53:00
11:13 AM,59.0,42.8,55,30.01,10.0,Calm,Calm,-,N/A,,Clear,0,2013-09-21 16:13:00
11:33 AM,60.8,42.8,52,30.00,10.0,Calm,Calm,-,N/A,,Clear,0,2013-09-21 16:33:00
11:53 AM,62.6,42.8,48,30.00,10.0,Calm,Calm,-,N/A,,Clear,0,2013-09-21 16:53:00
12:13 PM,62.6,41.0,45,29.99,10.0,Calm,Calm,-,N/A,,Clear,0,2013-09-21 17:13:00
12:33 PM,64.4,39.2,40,29.99,10.0,SSW,3.5,-,N/A,,Clear,210,2013-09-21 17:33:00
12:53 PM,64.4,39.2,40,29.98,10.0,South,3.5,-,N/A,,Clear,180,2013-09-21 17:53:00
1:13 PM,64.4,37.4,37,29.97,10.0,Calm,Calm,-,N/A,,Clear,0,2013-09-21 18:13:00
1:33 PM,66.2,39.2,37,29.97,10.0,Calm,Calm,-,N/A,,Clear,0,2013-09-21 18:33:00
1:53 PM,68.0,37.4,33,29.96,10.0,South,3.5,-,N/A,,Clear,170,2013-09-21 18:53:00
2:13 PM,68.0,35.6,30,29.94,10.0,Calm,Calm,-,N/A,,Clear,0,2013-09-21 19:13:00
2:33 PM,69.8,35.6,28,29.94,10.0,SW,3.5,-,N/A,,Clear,230,2013-09-21 19:33:00
2:53 PM,69.8,35.6,28,29.93,10.0,South,3.5,-,N/A,,Clear,190,2013-09-21 19:53:00
3:13 PM,69.8,37.4,31,29.92,10.0,Calm,Calm,-,N/A,,Clear,0,2013-09-21 20:13:00
3:33 PM,71.6,39.2,31,29.91,10.0,South,3.5,-,N/A,,Clear,190,2013-09-21 20:33:00
3:53 PM,71.6,37.4,29,29.90,10.0,Calm,Calm,-,N/A,,Clear,0,2013-09-21 20:53:00
4:13 PM,71.6,37.4,29,29.90,10.0,SSE,6.9,-,N/A,,Clear,150,2013-09-21 21:13:00
4:33 PM,71.6,37.4,29,29.89,10.0,South,4.6,-,N/A,,Clear,180,2013-09-21 21:33:00
4:53 PM,71.6,35.6,27,29.88,10.0,SE,5.8,-,N/A,,Clear,130,2013-09-21 21:53:00
5:13 PM,71.6,37.4,29,29.88,10.0,SSE,6.9,-,N/A,,Clear,150,2013-09-21 22:13:00
5:33 PM,71.6,37.4,29,29.88,10.0,SSE,4.6,-,N/A,,Clear,150,2013-09-21 22:33:00
5:53 PM,69.8,37.4,31,29.88,10.0,SE,6.9,-,N/A,,Clear,140,2013-09-21 22:53:00
6:13 PM,69.8,37.4,31,29.87,10.0,SSE,4.6,-,N/A,,Clear,150,2013-09-21 23:13:00
6:33 PM,69.8,37.4,31,29.87,10.0,SSE,4.6,-,N/A,,Clear,160,2013-09-21 23:33:00
6:53 PM,66.2,42.8,43,29.88,10.0,SE,3.5,-,N/A,,Clear,140,2013-09-21 23:53:00
7:13 PM,64.4,42.8,45,29.88,10.0,SE,3.5,-,N/A,,Clear,140,2013-09-22 00:13:00
7:33 PM,62.6,44.6,52,29.87,10.0,SE,3.5,-,N/A,,Clear,130,2013-09-22 00:33:00
7:53 PM,60.8,46.4,59,29.88,10.0,ESE,6.9,-,N/A,,Clear,120,2013-09-22 00:53:00
8:13 PM,59.0,46.4,63,29.87,10.0,ESE,6.9,-,N/A,,Clear,120,2013-09-22 01:13:00
8:33 PM,57.2,46.4,67,29.87,10.0,ESE,5.8,-,N/A,,Clear,120,2013-09-22 01:33:00
8:53 PM,55.4,46.4,72,29.88,10.0,ESE,6.9,-,N/A,,Clear,120,2013-09-22 01:53:00
9:13 PM,55.4,46.4,72,29.88,10.0,ESE,6.9,-,N/A,,Clear,120,2013-09-22 02:13:00
9:33 PM,55.4,46.4,72,29.87,10.0,SE,5.8,-,N/A,,Clear,130,2013-09-22 02:33:00
9:53 PM,53.6,46.4,77,29.87,10.0,SE,5.8,-,N/A,,Clear,130,2013-09-22 02:53:00
10:13 PM,53.6,46.4,77,29.87,10.0,ESE,5.8,-,N/A,,Clear,120,2013-09-22 03:13:00
10:33 PM,53.6,46.4,77,29.87,10.0,SE,5.8,-,N/A,,Clear,140,2013-09-22 03:33:00
10:53 PM,53.6,44.6,72,29.87,10.0,ESE,5.8,-,N/A,,Clear,110,2013-09-22 03:53:00
11:13 PM,53.6,46.4,77,29.87,10.0,SE,5.8,-,N/A,,Clear,130,2013-09-22 04:13:00
11:33 PM,51.8,44.6,76,29.87,10.0,SE,5.8,-,N/A,,Clear,130,2013-09-22 04:33:00
11:53 PM,51.8,44.6,76,29.87,10.0,SE,5.8,-,N/A,,Clear,130,2013-09-22 04:53:00